Regional Weather Roundup
Issued by NWS

Home | Current Version | Previous Version | Text Only | Print | Product List | Glossary Off
Versions: 1 2 3 4 5 6 7 8 9 10 11 12 13 14 15 16 17 18 19 20 21 22 23 24 25 26 27 28 29 30 31 32 33 34 35 36 37 38 39 40 41 42 43 44 45 46 47 48 49 50

000
ASUS43 KMKX 302100
RWRWI

WISCONSIN REGIONAL WEATHER ROUNDUP
NATIONAL WEATHER SERVICE MILWAUKEE/SULLIVAN WI
400 PM CDT TUE JUN 30 2015

NOTE: "FAIR" INDICATES FEW OR NO CLOUDS BELOW 12,000 FEET WITH NO
SIGNIFICANT WEATHER AND/OR OBSTRUCTIONS TO VISIBILITY.

WIZ001-002-006>008-014>016-023>028-302200-
NORTHWEST WISCONSIN

CITY           SKY/WX    TMP DP  RH WIND       PRES   REMARKS
SUPERIOR ARPT  MOSUNNY   61  49  64 NE9       29.98S
ASHLAND        MOSUNNY   62  52  69 NE9       30.00F
HAYWARD        MOSUNNY   63  51  65 N9        29.97F
SIREN          MOSUNNY   69  53  56 NE6       29.95F
CUMBERLAND     PTSUNNY   68  52  56 N9        29.95F
RICE LAKE      MOSUNNY   69  51  52 N10G16    29.96S
CHETEK         MOSUNNY   70  53  56 NW8       29.94R
LADYSMITH      MOSUNNY   68  54  61 NW12G17   29.96S
EAU CLAIRE     NOT AVBL
MENOMONIE      MOSUNNY   73  51  45 NW7G16    29.92S
NEW RICHMOND   MOSUNNY   70  54  56 N8        29.94F
OSCEOLA        MOSUNNY   71  55  58 N8        29.96F
$$

WIZ003>005-009-010-017-018-302200-
NORTH CENTRAL WISCONSIN

CITY           SKY/WX    TMP DP  RH WIND       PRES   REMARKS
MANITOWISH WTR PTSUNNY   59  50  71 NE9       29.96R
ARBOR VITAE    MOSUNNY   62  51  68 NE9       29.95R
WOODRUFF       MOSUNNY   62  51  68 NE9       29.95R
RHINELANDER    CLOUDY    62  50  64 N9        29.94R
EAGLE RIVER    CLOUDY    57  47  69 N12       29.94S
LAND O LAKES   CLOUDY    54  48  79 N9        29.96S
PHILLIPS       MOSUNNY   64  52  64 N9G20     29.95R
TOMAHAWK       PTSUNNY   62  51  67 N7        29.94R
MEDFORD        CLOUDY    65  53  66 N10       29.93S
MERRILL        CLOUDY    64  53  68 N10       29.92S
$$

WIZ029-030-035-036-043>047-302200-
CENTRAL WISCONSIN

CITY           SKY/WX    TMP DP  RH WIND       PRES   REMARKS
WAUSAU         CLOUDY    66  53  63 N10       29.89S
MOSINEE        NOT AVBL
MARSHFIELD     CLOUDY    66  52  60 N8        29.92R
STEVENS POINT  PTSUNNY   67  53  61 N7        29.88S
WAUPACA        PTSUNNY   74  56  53 N8        29.85S
WAUTOMA        NOT AVBL
WISC RAPIDS    MOSUNNY   72  52  49 N14G23    29.89S
CAMP DOUGLAS   NOT AVBL
$$

WIZ011>013-019>022-031-037>040-048>050-302200-
NORTHEAST WISCONSIN

CITY           SKY/WX    TMP DP  RH WIND       PRES   REMARKS
ANTIGO         PTSUNNY   64  55  71 N12       29.90S
SHAWANO        CLOUDY    72  56  56 NW9       29.87R
OCONTO         CLOUDY    66  56  68 N6        29.85R
STURGEON BAY   CLOUDY    63  54  72 N9        29.87S
GREEN BAY      CLOUDY    69  59  70 NE6       29.84F
MANITOWOC      NOT AVBL
APPLETON       PTSUNNY   70  54  56 NW12G18   29.86S
CLINTONVILLE   CLOUDY    70  54  56 N9        29.86S
OSHKOSH        MOSUNNY   74  57  55 N12G23    29.83F
$$

WIZ032>034-041-042-053>061-302200-
SOUTHWEST WISCONSIN

CITY           SKY/WX    TMP DP  RH WIND       PRES   REMARKS
LA CROSSE      MOSUNNY   76  54  46 NW14      29.88S
SPARTA         MOSUNNY   75  54  46 N12       29.89S
VIROQUA        MOSUNNY   72  57  59 NW12      29.90S
BOSCOBEL       PTSUNNY   76  60  57 N7        29.87S
PRAIRIE DU CHI MOSUNNY   73  57  57 NW10      29.88F
PLATTEVILLE    MOSUNNY   73  62  66 NW5       29.87S
$$

WIZ056-057-062-063-064-067-068-302200-
SOUTH CENTRAL WISCONSIN

CITY           SKY/WX    TMP DP  RH WIND       PRES   REMARKS
REEDSBURG      MOSUNNY   73  59  62 NW10G17   29.86S
BARABOO/DELLS  MOSUNNY   74  57  53 NW8       29.86S
LONE ROCK      NOT AVBL
MINERAL POINT  PTSUNNY   75  59  57 NW7       29.87F
MADISON        PTSUNNY   76  59  55 N8        29.84S
MIDDLETON      MOSUNNY   77  57  50 NW9       29.85S
WATERTOWN      MOSUNNY   74  59  59 N8G18     29.83S
MONROE         MOSUNNY   72  59  64 NW6       29.86S
JANESVILLE     MOSUNNY   75  61  60 NW9       29.84S
$$

WIZ051-052-058>065-066-070>072-302200-
SOUTHEAST WISCONSIN

CITY           SKY/WX    TMP DP  RH WIND       PRES   REMARKS
MILWAUKEE      PTSUNNY   65  58  78 NE12      29.84R
WAUKESHA       PTSUNNY   72  55  56 NW9       29.84S
MILWAUKEE/TIMM PTSUNNY   68  57  68 NE9       29.84S
RACINE         CLOUDY    61  56  83 N10       29.86R
BURLINGTON     MOSUNNY   71  58  62 NW10      29.83R
KENOSHA        PTSUNNY   67  59  75 NE13      29.84R
FOND DU LAC    MOSUNNY   72  59  63 NE14      29.84F
SHEBOYGAN      PTSUNNY   66  59  78 E9        29.83S
WEST BEND      PTSUNNY   70  55  60 N10G18    29.83S
JUNEAU         PTSUNNY   73  59  62 NW8       29.84S
$$

LSZ147-162-302200-
LAKE SUPERIOR

STATION/POSITION TIME  TEMP    WIND        PRES    WAVE
                       AIR SEA DIR/SP/G            HT/PER
                 (UTC) (F)     (DEG/KT/KT) (MB)    (FT/S)
W MID LAKE BUOY  1950   43 39  150/ 10/ 10 1015.6F   1
DEVILS ISLAND    2000   52     130/ 13/ 15 1016.2R
SAXON HARBOR     2040   54      50/  9/ 11 1015.9S
$$

LMZ867-665-643>646-302200-
LAKE MICHIGAN

STATION/POSITION TIME  TEMP    WIND        PRES    WAVE
                       AIR SEA DIR/SP/G            HT/PER
                 (UTC) (F)     (DEG/KT/KT) (MB)    (FT/S)
CHAMBERS ISLAND  2000   63     350/ 15/ 17 1010.8S
N MID LAKE BUOY  1950   49 44  320/ 14/ 17 1010.4F   2/ 4
NORTHPORT PIER   2000   58     340/ 18/ 22 1010.8F
SISTER BAY       2014   61     350/ 18/ 21   N/A
ALGOMA LAKESHORE 1940           90/ 11/ 13   N/A
KEWAUNEE LAKESHO 2000   60      50/  4/  6 1010.1F
SHEBOYGAN LAKESH 2000   58      30/ 13/ 15 1010.7R
PORT WASHINGTON  2000   62      40/ 10/ 17 1010.8
ATWATER BUOY     2000   59      20/ 14/ 17 1011.6R
MILWAUKEE LAKESH 2000   59      20/ 15/ 17   N/A
KENOSHA   LAKESH 2000   60      30/ 13/ 17 1010.2R
$$

TC  - TEMPERATURE IN CELSIUS
VSB - VISIBILITY IN STATUTE MILES
WCI - WIND CHILL INDEX
HX  - HEAT INDEX




USA.gov is the U.S. government's official web portal to all federal, state and local government web resources and services.